This is the latest recevied weather packets stored in our database for station/object KI5GCD-13. If no packets are shown the sender has not sent any weather packets the latest 10 day(s).
| Time | Temp. | Humidity | Pressure | Rain* | Wind** | Luminosity | Snow |
|---|---|---|---|---|---|---|---|
| 1777886987 | 16.67° C | 65% | 1006.8 hPa | 0 mm | 0.89 m/s, 226° | - | - |
| 1777886687 | 16.67° C | 65% | 1007 hPa | 0 mm | 0 m/s | - | - |
| 1777886387 | 17.22° C | 64% | 1006.9 hPa | 0 mm | 0.45 m/s, 217° | - | - |
| 1777886088 | 17.22° C | 63% | 1007.1 hPa | 0 mm | 1.34 m/s, 249° | - | - |
| 1777885787 | 17.22° C | 63% | 1007.2 hPa | 0 mm | 0.89 m/s, 235° | - | - |
| 1777885487 | 17.22° C | 63% | 1007.1 hPa | 0 mm | 0.89 m/s, 241° | - | - |
| 1777885187 | 17.22° C | 63% | 1007.1 hPa | 0 mm | 0.89 m/s, 174° | - | - |
| 1777884887 | 17.22° C | 62% | 1006.8 hPa | 0 mm | 0.89 m/s, 188° | - | - |
| 1777884587 | 17.22° C | 62% | 1006.9 hPa | 0 mm | 1.79 m/s, 225° | - | - |
| 1777884287 | 17.22° C | 63% | 1007.1 hPa | 0 mm | 0.45 m/s, 191° | - | - |
| 1777883987 | 17.22° C | 62% | 1007 hPa | 0 mm | 0.45 m/s, 231° | - | - |
| 1777883687 | 17.78° C | 62% | 1007 hPa | 0 mm | 0.89 m/s, 224° | - | - |
| 1777883387 | 17.78° C | 61% | 1007.1 hPa | 0 mm | 0.89 m/s, 185° | - | - |
| 1777883088 | 17.78° C | 61% | 1007 hPa | 0 mm | 0.89 m/s, 207° | - | - |
| 1777882788 | 17.78° C | 60% | 1007.1 hPa | 0 mm | 1.34 m/s, 170° | - | - |
| 1777882487 | 17.78° C | 60% | 1007.1 hPa | 0 mm | 1.34 m/s, 170° | - | - |
| 1777882188 | 17.78° C | 60% | 1007 hPa | 0 mm | 0.89 m/s, 223° | - | - |
| 1777881887 | 17.78° C | 60% | 1007.2 hPa | 0 mm | 0.89 m/s, 234° | - | - |
| 1777881588 | 17.78° C | 61% | 1007.1 hPa | 0 mm | 0 m/s | - | - |
| 1777881288 | 17.78° C | 60% | 1007.2 hPa | 0 mm | 0.89 m/s, 171° | - | - |
| 1777880987 | 17.78° C | 60% | 1007.3 hPa | 0 mm | 0.45 m/s, 171° | - | - |
| 1777880687 | 17.78° C | 60% | 1007.2 hPa | 0 mm | 1.34 m/s, 182° | - | - |
| 1777880387 | 17.78° C | 61% | 1007.3 hPa | 0 mm | 0.45 m/s, 238° | - | - |
| 1777880087 | 17.78° C | 61% | 1007.3 hPa | 0 mm | 0.89 m/s, 187° | - | - |
| 1777879787 | 17.78° C | 60% | 1007.4 hPa | 0 mm | 1.34 m/s, 198° | - | - |
* Rain latest hour (hover to see other rain measurements)
** Current wind speed in m/s (hover to see current wind gust speed)